{"data":{"norad_id":47837,"epoch":"2026-05-24T18:14:22.085376Z","epoch_age_seconds":96057,"freshness":"FRESH","line1":"1 47837U 21018BC  26144.75997784 -.00004073  00000+0 -11957-3 0  9995","line2":"2 47837  53.1592 245.2151 0001380  66.0196 294.0950 15.31694561288420","mean_motion":15.31694561,"eccentricity":0.000138,"inclination_deg":53.1592,"raan_deg":245.2151,"arg_perigee_deg":66.0196,"mean_anomaly_deg":294.095,"bstar":-0.00011957,"rev_number":28842,"period_min":94.013521799011,"perigee_km":469.81106138681,"apogee_km":471.7013559124,"semimajor_km":6848.8932086496,"source":"CELESTRAK","updated_at":"2026-05-25T13:38:16.607282Z"}}